| time (UTC) | temp C | wind direction | speed KPH | gust KPH | rain 1hr cm | rain 24hr cm | rain mn cm | humidity % | barometer mb |
| 20260506184506 | 13 | 118 | 3.2 | 14.5 | 0.00 | 0.00 | 0.00 | 39 | 1014.6 |
| 20260506183006 | 13 | 5 | 1.6 | 12.9 | 0.00 | 0.00 | 0.00 | 44 | 1014.7 |
| 20260506181504 | 12 | 229 | 1.6 | 11.3 | 0.00 | 0.00 | 0.00 | 42 | 1014.7 |
| 20260506180013 | 12 | 317 | 4.8 | 19.3 | 0.00 | 0.00 | 0.00 | 40 | 1014.8 |
| 20260506174503 | 13 | 269 | 1.6 | 16.1 | 0.00 | 0.00 | 0.00 | 40 | 1014.7 |
| 20260506173003 | 12 | 65 | 3.2 | 19.3 | 0.00 | 0.00 | 0.00 | 42 | 1015.0 |
| 20260506171502 | 13 | 230 | 1.6 | 19.3 | 0.00 | 0.00 | 0.00 | 41 | 1014.9 |
| 20260506170110 | 13 | 66 | 3.2 | 17.7 | 0.00 | 0.00 | 0.00 | 44 | 1015.0 |
| 20260506164623 | 12 | 328 | 3.2 | 16.1 | 0.00 | 0.03 | 0.00 | 42 | 1015.0 |
| 20260506163106 | 13 | 33 | 4.8 | 19.3 | 0.00 | 0.03 | 0.00 | 41 | 1014.9 |
| 20260506161555 | 12 | 91 | 3.2 | 14.5 | 0.00 | 0.03 | 0.00 | 44 | 1014.9 |
| 20260506160106 | 11 | 78 | 1.6 | 8.0 | 0.00 | 0.03 | 0.00 | 46 | 1015.0 |
| 20260506154554 | 11 | 349 | 4.8 | 11.3 | 0.00 | 0.03 | 0.00 | 47 | 1014.9 |
| 20260506153050 | 11 | 146 | 0.0 | 9.7 | 0.00 | 0.03 | 0.00 | 48 | 1015.0 |
| 20260506151550 | 11 | 16 | 1.6 | 6.4 | 0.00 | 0.03 | 0.00 | 49 | 1014.9 |
| 20260506150048 | 11 | 348 | 0.0 | 6.4 | 0.00 | 0.03 | 0.00 | 48 | 1015.0 |
| 20260506144546 | 11 | 239 | 1.6 | 6.4 | 0.00 | 0.03 | 0.00 | 51 | 1015.0 |
| 20260506143045 | 11 | 207 | 0.0 | 3.2 | 0.00 | 0.03 | 0.00 | 53 | 1015.0 |
| 20260506141602 | 10 | 27 | 0.0 | 1.6 | 0.00 | 0.03 | 0.00 | 64 | 1015.0 |
| 20260506140041 | 10 | 343 | 0.0 | 3.2 | 0.00 | 0.03 | 0.00 | 63 | 1015.0 |
| 20260506134538 | 9 | 355 | 0.0 | 3.2 | 0.00 | 0.05 | 0.00 | 63 | 1014.9 |
| 20260506133036 | 8 | 360 | 0.0 | 3.2 | 0.00 | 0.05 | 0.00 | 68 | 1014.6 |
| 20260506131537 | 7 | 5 | 0.0 | 0.0 | 0.00 | 0.05 | 0.00 | 72 | 1014.2 |
| 20260506130032 | 7 | 5 | 0.0 | 0.0 | 0.00 | 0.05 | 0.00 | 77 | 1014.2 |
| 20260506124537 | 6 | 5 | 0.0 | 0.0 | 0.00 | 0.15 | 0.00 | 80 | 1014.1 |
| 20260506123038 | 5 | 5 | 0.0 | 0.0 | 0.00 | 0.15 | 0.00 | 82 | 1013.9 |
| 20260506121527 | 4 | 5 | 0.0 | 0.0 | 0.00 | 0.15 | 0.00 | 84 | 1013.6 |
| 20260506120036 | 4 | 5 | 0.0 | 0.0 | 0.00 | 0.15 | 0.00 | 84 | 1013.5 |
| 20260506114526 | 3 | 5 | 0.0 | 0.0 | 0.00 | 0.15 | 0.00 | 86 | 1013.3 |
| 20260506113023 | 3 | 5 | 0.0 | 0.0 | 0.00 | 0.15 | 0.00 | 84 | 1013.3 |
| 20260506111521 | 3 | 5 | 0.0 | 0.0 | 0.00 | 0.15 | 0.00 | 84 | 1013.1 |
| 20260506110025 | 3 | 5 | 0.0 | 0.0 | 0.00 | 0.15 | 0.00 | 83 | 1013.0 |
| 20260506104518 | 3 | 5 | 0.0 | 0.0 | 0.00 | 0.15 | 0.00 | 84 | 1012.9 |
| 20260506103026 | 3 | 5 | 0.0 | 0.0 | 0.00 | 0.15 | 0.00 | 83 | 1012.7 |
| 20260506101513 | 3 | 5 | 0.0 | 0.0 | 0.00 | 0.15 | 0.00 | 81 | 1012.3 |
| 20260506100012 | 3 | 5 | 0.0 | 0.0 | 0.00 | 0.15 | 0.00 | 79 | 1012.1 |
| 20260506094525 | 4 | 5 | 0.0 | 0.0 | 0.00 | 0.15 | 0.00 | 79 | 1012.1 |
| 20260506093007 | 4 | 5 | 0.0 | 0.0 | 0.00 | 0.15 | 0.00 | 79 | 1012.2 |
| 20260506091506 | 5 | 5 | 0.0 | 1.6 | 0.00 | 0.15 | 0.00 | 79 | 1012.1 |
| 20260506090004 | 5 | 5 | 0.0 | 0.0 | 0.00 | 0.15 | 0.00 | 78 | 1011.9 |
| 20260506084504 | 5 | 5 | 0.0 | 0.0 | 0.00 | 0.15 | 0.00 | 76 | 1012.1 |
| 20260506083002 | 5 | 5 | 0.0 | 0.0 | 0.00 | 0.15 | 0.00 | 73 | 1012.0 |
| 20260506081602 | 5 | 5 | 0.0 | 0.0 | 0.00 | 0.15 | 0.00 | 71 | 1011.8 |
| 20260506073058 | 6 | 5 | 0.0 | 0.0 | 0.00 | 0.15 | 0.00 | 66 | 1011.6 |
| 20260506071552 | 6 | 5 | 0.0 | 0.0 | 0.00 | 0.15 | 0.00 | 65 | 1011.5 |
| 20260506070106 | 7 | 5 | 0.0 | 4.8 | 0.00 | 0.15 | 0.00 | 63 | 1011.4 |
| 20260506061541 | 7 | 349 | 0.0 | 0.0 | 0.00 | 0.15 | 0.00 | 67 | 1011.3 |
| 20260506044525 | 10 | 355 | 1.6 | 9.7 | 0.00 | 0.15 | 0.15 | 53 | 1010.8 |
| 20260506043023 | 10 | 5 | 3.2 | 8.0 | 0.00 | 0.15 | 0.15 | 54 | 1010.7 |
| 20260506041524 | 10 | 5 | 1.6 | 6.4 | 0.00 | 0.15 | 0.15 | 57 | 1011.0 |
| 20260506040021 | 10 | 360 | 0.0 | 0.0 | 0.00 | 0.15 | 0.15 | 57 | 1010.9 |
| 20260506034521 | 10 | 360 | 0.0 | 0.0 | 0.00 | 0.15 | 0.15 | 60 | 1011.0 |
| 20260506033019 | 10 | 360 | 0.0 | 0.0 | 0.00 | 0.15 | 0.15 | 58 | 1010.7 |
| 20260506031521 | 10 | 360 | 0.0 | 0.0 | 0.00 | 0.15 | 0.15 | 58 | 1010.7 |
| 20260506030019 | 11 | 360 | 0.0 | 0.0 | 0.00 | 0.15 | 0.15 | 57 | 1010.3 |
| 20260506024515 | 11 | 360 | 0.0 | 3.2 | 0.00 | 0.15 | 0.15 | 52 | 1010.1 |
| 20260506023015 | 11 | 360 | 0.0 | 3.2 | 0.00 | 0.15 | 0.15 | 52 | 1010.2 |
| 20260506021514 | 11 | 360 | 0.0 | 0.0 | 0.00 | 0.15 | 0.15 | 50 | 1010.2 |
| 20260506020013 | 11 | 360 | 0.0 | 1.6 | 0.00 | 0.15 | 0.15 | 49 | 1009.9 |
| 20260506014514 | 11 | 360 | 0.0 | 3.2 | 0.00 | 0.15 | 0.15 | 48 | 1009.9 |
| 20260506013013 | 11 | 355 | 0.0 | 4.8 | 0.00 | 0.15 | 0.15 | 47 | 1009.4 |
| 20260506011512 | 11 | 5 | 0.0 | 4.8 | 0.00 | 0.15 | 0.15 | 46 | 1009.3 |
| 20260506010012 | 12 | 5 | 1.6 | 6.4 | 0.00 | 0.18 | 0.15 | 44 | 1009.1 |
| 20260506004511 | 12 | 345 | 0.0 | 4.8 | 0.00 | 0.18 | 0.15 | 44 | 1009.1 |
| 20260506003010 | 12 | 5 | 3.2 | 8.0 | 0.00 | 0.18 | 0.15 | 42 | 1008.8 |
| 20260506001510 | 12 | 355 | 1.6 | 9.7 | 0.00 | 0.18 | 0.15 | 42 | 1008.7 |
| 20260506000009 | 12 | 9 | 0.0 | 6.4 | 0.00 | 0.43 | 0.15 | 42 | 1008.9 |
| 20260505234514 | 12 | 355 | 3.2 | 12.9 | 0.00 | 0.43 | 0.15 | 39 | 1008.9 |
| 20260505233011 | 12 | 11 | 4.8 | 12.9 | 0.00 | 0.43 | 0.15 | 39 | 1008.8 |
| 20260505231511 | 12 | 345 | 6.4 | 14.5 | 0.00 | 0.43 | 0.15 | 38 | 1008.9 |
| 20260505230007 | 12 | 342 | 6.4 | 11.3 | 0.00 | 0.43 | 0.15 | 38 | 1008.8 |
| 20260505224507 | 12 | 333 | 0.0 | 9.7 | 0.00 | 0.43 | 0.15 | 40 | 1009.1 |
| 20260505223010 | 13 | 118 | 4.8 | 14.5 | 0.00 | 0.43 | 0.15 | 38 | 1009.1 |
| 20260505221505 | 13 | 54 | 1.6 | 11.3 | 0.00 | 0.43 | 0.15 | 36 | 1009.1 |
| 20260505220008 | 13 | 232 | 3.2 | 12.9 | 0.00 | 0.43 | 0.15 | 36 | 1009.1 |
| 20260505214507 | 13 | 117 | 1.6 | 12.9 | 0.00 | 0.43 | 0.15 | 36 | 1009.3 |
| 20260505213004 | 13 | 323 | 1.6 | 11.3 | 0.00 | 0.43 | 0.15 | 36 | 1009.3 |
| 20260505211504 | 13 | 338 | 4.8 | 16.1 | 0.00 | 0.43 | 0.15 | 34 | 1009.5 |
| 20260505210004 | 13 | 360 | 3.2 | 12.9 | 0.00 | 0.43 | 0.15 | 35 | 1009.4 |
| 20260505204503 | 12 | 355 | 1.6 | 9.7 | 0.00 | 0.43 | 0.15 | 36 | 1009.4 |
| 20260505203001 | 12 | 314 | 4.8 | 14.5 | 0.00 | 0.43 | 0.15 | 35 | 1009.5 |
| 20260505201609 | 12 | 342 | 1.6 | 12.9 | 0.00 | 0.43 | 0.15 | 38 | 1009.7 |
| 20260505200107 | 12 | 5 | 3.2 | 11.3 | 0.00 | 0.43 | 0.15 | 38 | 1009.7 |
| 20260505194608 | 12 | 12 | 1.6 | 6.4 | 0.00 | 0.43 | 0.15 | 38 | 1009.7 |
| 20260505193058 | 13 | 355 | 6.4 | 14.5 | 0.00 | 0.43 | 0.15 | 38 | 1009.5 |
| 20260505191558 | 13 | 355 | 1.6 | 9.7 | 0.00 | 0.43 | 0.15 | 43 | 1009.7 |